[[{"header":{"parameterUnit":"m.s-1","parameterCategory":1,"la1":30.2991,"la2":30.254,"lo1":-89.0895,"lo2":-89.0444,"dy":0.0017,"dx":0.0017,"nx":28,"ny":28,"refTime":"2024-04-05T03:00:00:Z","depth":0,"parameterNumber":2,"parameterNumberName":"U-component_of_WINDS"},"data":[0,0,0,0,0,0,0,0,0,0,0,0,0,0,0,0,0,0,0,0,0,0,0,0,0,0,0,0,0,0,0,0,0,0,0,0,0,0,0,0,0,0,0,0,0,0,0,0,0,0,0,0,0,0,0,0,0,0,-2.3957,-2.3955,0,-2.3837,-2.3835,-2.3834,-2.371,-2.3708,-2.3707,-2.3705,-2.3581,-2.3579,-2.3577,0,0,0,0,0,0,0,0,0,0,0,0,0,-2.408,-2.4078,-2.3957,-2.3955,-2.3954,-2.3837,-2.3835,-2.3833,-2.371,-2.3708,-2.3706,-2.3704,-2.3581,-2.3579,-2.3577,0,0,0,0,0,0,0,0,0,0,0,0,0,-2.4,-2.4078,-2.3957,-2.3878,-2.387,-2.3837,-2.3835,-2.3833,-2.3711,-2.3708,-2.3706,-2.3703,-2.3582,-2.3579,-2.3577,-2.3611,0,0,-2.3569,-2.3568,0,0,0,0,0,0,0,0,-2.4005,-2.3996,-2.3891,-2.3884,-2.3874,-2.3786,-2.3833,-2.3759,-2.3711,-2.3771,-2.3705,-2.3702,-2.3651,-2.3642,-2.3625,-2.3606,-2.36,-2.3569,-2.3567,-2.3566,-2.3565,0,0,0,0,0,0,0,-2.401,-2.4,-2.3909,-2.389,-2.388,-2.3849,-2.3835,-2.3818,-2.3727,-2.3766,-2.3757,-2.3744,-2.3646,-2.3628,-2.3621,-2.3598,-2.3569,-2.3566,-2.3565,-2.3564,-2.3602,-2.3605,0,0,0,0,0,0,-2.4028,-2.4005,-2.3913,-2.3905,-2.3935,-2.3849,-2.3833,-2.3817,-2.3726,-2.371,-2.3746,-2.3739,-2.3634,-2.3625,-2.3617,-2.3651,-2.3566,-2.3563,-2.3562,-2.36,-2.3603,-2.3606,0,0,0,0,0,0,-2.4031,-2.4021,-2.3918,-2.3953,-2.3937,-2.385,-2.3832,-2.3816,-2.3798,-2.3712,-2.3695,-2.3745,-2.3631,-2.362,-2.3614,-2.3645,-2.3562,-2.356,-2.3597,-2.3601,-2.3604,-2.3721,0,0,0,0,0,0,-2.4035,-2.4023,-2.4034,-2.3954,-2.3936,-2.3917,-2.3834,-2.3815,-2.3794,-2.3783,-2.3706,-2.3691,-2.3629,-2.3619,-2.3611,-2.364,-2.3558,-2.3593,-2.3599,-2.3603,-2.3714,-2.3728,-2.3741,0,0,0,0,0,-2.404,-2.4071,-2.4036,-2.4025,-2.3949,-2.3919,-2.3909,-2.3837,-2.3797,-2.3808,-2.3754,-2.3693,-2.3644,-2.3619,-2.361,-2.3638,-2.3591,-2.3597,-2.3603,-2.3708,-2.3725,-2.374,0,0,0,0,0,0,-2.4156,-2.4059,-2.4018,-2.4025,-2.3982,-2.3898,-2.391,-2.3857,-2.3824,-2.3814,-2.3726,-2.371,-2.3714,-2.3676,-2.365,-2.3668,-2.3609,-2.3614,-2.3692,-2.3708,-2.3721,-2.3729,-2.3556,0,0,0,0,0,-2.4183,-2.4167,-2.4083,-2.4097,-2.4077,-2.3998,-2.3982,-2.3931,-2.3882,-2.3863,-2.3807,-2.3762,-2.3736,-2.372,-2.3691,-2.3709,-2.369,-2.3724,-2.3738,-2.3749,-2.3753,-2.376,-2.3774,-2.3625,-2.3625,-2.3625,0,0,-2.4237,-2.4182,-2.4177,-2.4119,-2.4079,-2.4064,-2.3983,-2.397,-2.3959,-2.386,-2.385,-2.381,-2.3753,-2.3759,-2.3759,-2.3727,-2.3791,-2.3757,-2.3766,-2.3764,-2.3767,-2.3782,-2.3794,-2.3629,-2.3628,-2.3628,0,0,-2.4328,-2.4285,-2.4292,-2.4255,-2.4196,-2.4144,-2.4146,-2.4072,-2.404,-2.403,-2.3956,-2.3942,-2.3899,-2.3862,-2.3838,-2.392,-2.3863,-2.3913,-2.3982,-2.399,-2.4001,-2.4011,-2.404,-2.4051,-2.3918,-2.3918,-2.3918,0,-2.4402,-2.4377,-2.4302,-2.4295,-2.4271,-2.4184,-2.4191,-2.4158,-2.4093,-2.4079,-2.4046,-2.3991,-2.3947,-2.3944,-2.3964,-2.3948,-2.3947,-2.3919,-2.4006,-2.4015,-2.4023,-2.4049,-2.406,-2.3924,-2.3924,-2.3923,-2.3922,0,-2.4471,-2.4455,-2.4468,-2.4409,-2.4387,-2.4387,-2.4313,-2.4301,-2.4253,-2.4205,-2.4196,-2.4141,-2.41,-2.4096,-2.4049,-2.4087,-2.4069,-2.4022,-2.3961,-2.4045,-2.4068,-2.4077,-2.3933,-2.3931,-2.3929,-2.3928,0,0,-2.4627,-2.4529,-2.4535,-2.4508,-2.4439,-2.4425,-2.4422,-2.4383,-2.4374,-2.4334,-2.4329,-2.4297,-2.4254,-2.4227,-2.4175,-2.4182,-2.425,-2.4134,-2.4131,-2.4156,-2.4289,-2.4323,-2.4335,-2.4214,-2.4216,-2.4217,-2.4293,0,-2.4704,-2.4693,-2.4627,-2.4635,-2.462,-2.4539,-2.4536,-2.4494,-2.445,-2.4431,-2.4383,-2.4361,-2.4306,-2.4289,-2.4293,-2.4241,-2.4275,-2.4235,-2.4208,-2.4207,-2.4221,-2.4347,-2.4383,-2.4456,-2.4301,-2.4303,-2.4304,0,-2.4791,-2.4758,-2.4765,-2.4698,-2.4689,-2.4687,-2.4648,-2.4631,-2.4582,-2.455,-2.4522,-2.4465,-2.4458,-2.4403,-2.4392,-2.4367,-2.4352,-2.4326,-2.4327,-2.4319,-2.4259,-2.4341,-2.4478,-2.4489,-2.4318,-2.4316,-2.4315,0,-2.4903,-2.486,-2.4858,-2.4838,-2.476,-2.4761,-2.4729,-2.4678,-2.466,-2.4626,-2.4613,-2.4579,-2.4559,-2.4534,-2.447,-2.4436,-2.4466,-2.4406,-2.4439,-2.444,-2.4445,-2.4445,-2.458,-2.4441,-2.4441,-2.4441,-2.444,0,-2.4995,-2.5001,-2.4908,-2.4906,-2.4913,-2.4839,-2.4847,-2.4807,-2.4763,-2.4753,-2.4682,-2.4674,-2.459,-2.4574,-2.4523,-2.4522,-2.4514,-2.4488,-2.4474,-2.4492,-2.4496,-2.4479,-2.4472,-2.4443,-2.4443,-2.4442,-2.4442,0,-2.5118,-2.5056,-2.5049,-2.4977,-2.496,-2.4967,-2.4906,-2.4902,-2.4856,-2.4844,-2.4837,-2.4764,-2.4741,-2.4675,-2.4635,-2.4601,-2.4613,-2.4589,-2.463,-2.462,-2.4656,-2.4653,-2.4783,-2.4796,-2.4651,-2.4653,-2.4654,0,-2.5179,-2.5183,-2.5113,-2.5101,-2.5072,-2.5055,-2.5036,-2.4965,-2.4949,-2.4896,-2.4899,-2.4871,-2.4843,-2.481,-2.4753,-2.4723,-2.4695,-2.4744,-2.469,-2.4709,-2.4694,-2.4694,-2.4694,-2.4754,-2.4756,-2.4758,-2.4759,0,-2.5294,-2.5264,-2.524,-2.5207,-2.5187,-2.5157,-2.5123,-2.5118,-2.5038,-2.5024,-2.5,-2.4979,-2.4939,-2.4912,-2.4873,-2.484,-2.4786,-2.4777,-2.4782,-2.48,-2.4823,-2.481,-2.4659,-2.4773,-2.4772,-2.4771,-2.477,-2.4769,-2.5387,-2.5387,-2.5338,-2.5314,-2.5282,-2.5253,-2.5246,-2.52,-2.5179,-2.5141,-2.5101,-2.5082,-2.5035,-2.4977,-2.4949,-2.4933,-2.4904,-2.4913,-2.4914,-2.4917,-2.4925,-2.4829,-2.4926,-2.4925,-2.4925,-2.4924,-2.4924,0,-2.5496,-2.5462,-2.5441,-2.5397,-2.5379,-2.5333,-2.5294,-2.5281,-2.5265,-2.5227,-2.5203,-2.5176,-2.515,-2.5094,-2.5062,-2.5061,-2.5035,-2.5055,-2.5052,-2.5046,-2.4953,-2.4951,-2.5076,-2.5076,-2.5076,-2.5076,-2.5075,-2.5075,-2.5551,-2.5548,-2.5513,-2.5495,-2.546,-2.5441,-2.5423,-2.5396,-2.5365,-2.5338,-2.5317,-2.5281,-2.5235,-2.5201,-2.5175,-2.5159,-2.515,-2.5177,-2.5153,-2.5067,-2.5052,-2.5038,-2.5035,-2.5176,-2.5177,-2.5247,-2.5247,-2.5248]},{"header":{"parameterUnit":"m.s-1","parameterCategory":1,"la1":30.2991,"la2":30.254,"lo1":-89.0895,"lo2":-89.0444,"dy":0.0017,"dx":0.0017,"nx":28,"ny":28,"refTime":"2024-04-05T03:00:00:Z","depth":0,"parameterNumber":3,"parameterNumberName":"V-component_of_WINDS"},"data":[0,0,0,0,0,0,0,0,0,0,0,0,0,0,0,0,0,0,0,0,0,0,0,0,0,0,0,0,0,0,0,0,0,0,0,0,0,0,0,0,0,0,0,0,0,0,0,0,0,0,0,0,0,0,0,0,0,0,2.9037,2.9037,0,2.9065,2.9065,2.9066,2.912,2.9121,2.9122,2.9123,2.9148,2.9147,2.9147,0,0,0,0,0,0,0,0,0,0,0,0,0,2.9026,2.9026,2.9037,2.9037,2.9037,2.9065,2.9065,2.9066,2.912,2.9121,2.9123,2.9124,2.9148,2.9147,2.9147,0,0,0,0,0,0,0,0,0,0,0,0,0,2.904,2.9026,2.9036,2.9068,2.9071,2.9065,2.9065,2.9066,2.912,2.9121,2.9123,2.9125,2.9148,2.9147,2.9147,2.9111,0,0,2.9145,2.9145,0,0,0,0,0,0,0,0,2.9039,2.904,2.9063,2.9066,2.9069,2.9091,2.9071,2.9081,2.9119,2.9101,2.9123,2.9125,2.9127,2.9128,2.913,2.9112,2.9113,2.9145,2.9145,2.9145,2.9145,0,0,0,0,0,0,0,2.9038,2.9039,2.9048,2.9063,2.9067,2.9079,2.9083,2.9073,2.9104,2.9103,2.9107,2.911,2.9129,2.913,2.9131,2.9114,2.9145,2.9145,2.9144,2.9144,2.9069,2.9067,0,0,0,0,0,0,2.9033,2.9038,2.9047,2.9049,2.9058,2.9078,2.9083,2.9082,2.9105,2.911,2.9108,2.9112,2.9131,2.9132,2.9132,2.9092,2.9145,2.9144,2.9144,2.907,2.9068,2.9067,0,0,0,0,0,0,2.9033,2.9033,2.9046,2.9045,2.9047,2.9077,2.9076,2.9082,2.9083,2.9109,2.9115,2.9104,2.9132,2.9133,2.9117,2.9094,2.9144,2.9143,2.9072,2.907,2.9067,2.9012,0,0,0,0,0,0,2.9032,2.9033,2.902,2.9044,2.9047,2.903,2.9075,2.9081,2.9083,2.9088,2.9106,2.9111,2.9133,2.9117,2.9116,2.9094,2.9143,2.9075,2.9071,2.9068,2.9015,2.9007,2.9,0,0,0,0,0,2.9031,2.9002,2.9019,2.902,2.9032,2.9029,2.9031,2.9058,2.9081,2.9068,2.9085,2.911,2.9097,2.9115,2.9114,2.9092,2.9076,2.9072,2.9069,2.9019,2.9009,2.9001,0,0,0,0,0,0,2.8973,2.9006,2.9025,2.9003,2.9013,2.9038,2.9023,2.9047,2.9049,2.9054,2.9087,2.909,2.9069,2.9079,2.9099,2.9059,2.909,2.9086,2.9053,2.9044,2.9036,2.9034,2.9143,0,0,0,0,0,2.8958,2.8954,2.8982,2.896,2.8964,2.8992,2.8992,2.9013,2.9024,2.9028,2.9043,2.9052,2.905,2.9047,2.9047,2.9018,2.9022,2.9002,2.8994,2.8988,2.8984,2.8969,2.896,2.9054,2.9054,2.9054,0,0,2.8926,2.8943,2.8938,2.8949,2.8959,2.8953,2.8996,2.8987,2.8983,2.9026,2.9012,2.9024,2.9036,2.9013,2.9004,2.902,2.8959,2.8983,2.8978,2.8977,2.8964,2.8956,2.8948,2.9052,2.9052,2.9052,0,0,2.8865,2.8877,2.8861,2.8871,2.8886,2.8906,2.8902,2.8924,2.8934,2.8921,2.8953,2.8948,2.8943,2.8951,2.8954,2.8897,2.8921,2.8896,2.8856,2.8841,2.8834,2.8828,2.8807,2.88,2.8891,2.8891,2.8891,0,2.8822,2.8816,2.8848,2.8839,2.8842,2.8883,2.8866,2.8873,2.8887,2.8888,2.8907,2.8903,2.8914,2.8893,2.888,2.8881,2.8877,2.8893,2.8833,2.8827,2.8821,2.8802,2.8794,2.8888,2.8889,2.8889,2.8889,0,2.8763,2.8759,2.8743,2.8758,2.8759,2.8746,2.8775,2.8773,2.8793,2.881,2.8796,2.8811,2.8815,2.8811,2.8831,2.8794,2.8804,2.8827,2.886,2.8809,2.8791,2.8784,2.8884,2.8885,2.8886,2.8886,0,0,2.8665,2.8699,2.8693,2.87,2.8721,2.8717,2.8706,2.8711,2.8708,2.8716,2.8707,2.8703,2.8725,2.8729,2.8749,2.8737,2.8691,2.8762,2.8763,2.8748,2.8651,2.8633,2.8624,2.8707,2.8706,2.8705,2.865,0,2.8608,2.8591,2.862,2.8596,2.8592,2.8632,2.8621,2.8633,2.8648,2.8646,2.8663,2.866,2.869,2.8692,2.8682,2.8699,2.8672,2.8703,2.8698,2.8697,2.8693,2.8615,2.8596,2.8544,2.8644,2.8643,2.8642,0,2.8539,2.8546,2.8522,2.8546,2.8545,2.8536,2.8543,2.8541,2.8554,2.8567,2.8572,2.8597,2.8586,2.8618,2.8604,2.8624,2.8624,2.8632,2.8631,2.8631,2.8666,2.8613,2.8528,2.852,2.8631,2.8632,2.8633,0,2.847,2.8473,2.846,2.8465,2.8492,2.8484,2.8495,2.851,2.8512,2.8518,2.8519,2.8523,2.8525,2.8527,2.8552,2.8574,2.8534,2.8569,2.8544,2.8543,2.8533,2.8533,2.8446,2.8533,2.8533,2.8533,2.8534,0,2.8403,2.8387,2.8429,2.842,2.8403,2.8437,2.8418,2.8433,2.8446,2.8441,2.8474,2.8468,2.8502,2.8499,2.8519,2.8504,2.8504,2.8513,2.8519,2.851,2.8509,2.851,2.8514,2.8531,2.8532,2.8532,2.8533,0,2.8322,2.835,2.8338,2.8365,2.8372,2.8358,2.8381,2.8373,2.8392,2.8384,2.8384,2.8413,2.8412,2.8438,2.844,2.8454,2.843,2.8441,2.8425,2.8429,2.8403,2.8405,2.8313,2.8302,2.8396,2.8395,2.8394,0,2.8278,2.8266,2.8293,2.8293,2.8302,2.8301,2.8303,2.8335,2.8336,2.8351,2.8342,2.8344,2.8347,2.8342,2.8362,2.8365,2.8377,2.8345,2.8377,2.837,2.8376,2.8377,2.8376,2.8337,2.8336,2.8335,2.8335,0,2.8196,2.821,2.8213,2.8221,2.8223,2.823,2.8239,2.8237,2.8272,2.8271,2.8271,2.8273,2.8278,2.8279,2.8285,2.8295,2.832,2.8324,2.8319,2.831,2.8301,2.8305,2.8406,2.8326,2.8327,2.8328,2.8328,2.8328,2.8132,2.8124,2.8142,2.8144,2.8155,2.8163,2.8158,2.8177,2.8178,2.8185,2.8203,2.82,2.8214,2.8226,2.8234,2.8231,2.8247,2.8238,2.8236,2.8234,2.8229,2.8302,2.8232,2.8233,2.8233,2.8233,2.8233,0,2.8052,2.8066,2.8067,2.808,2.8082,2.8107,2.8119,2.8118,2.8115,2.8127,2.813,2.813,2.8131,2.8152,2.8156,2.815,2.8161,2.815,2.815,2.8152,2.8214,2.8219,2.814,2.814,2.814,2.814,2.814,2.814,2.801,2.7998,2.8015,2.8009,2.8023,2.8021,2.8026,2.8033,2.8043,2.8042,2.8044,2.8058,2.8073,2.8079,2.8081,2.8087,2.8087,2.8071,2.8081,2.8138,2.8147,2.8156,2.8161,2.8071,2.807,2.8019,2.8018,2.8018]}]]